Regional Weather Roundup
Issued by NWS Upton, NY

Current Version | Previous Version | Text Only | Print | Product List | Glossary On
Versions: 1 2 3 4 5 6 7 8 9 10 11 12 13 14 15 16 17 18 19 20 21 22 23 24 25 26 27 28 29 30 31 32 33 34 35 36 37 38 39 40 41 42 43 44 45 46 47 48 49 50
000 ASUS41 KOKX 301408 RWROKX REGIONAL WEATHER ROUNDUP NATIONAL WEATHER SERVICE NEW YORK NY 1000 AM EDT THU JUL 30 2015 NOTE: "FAIR" INDICATES FEW OR NO CLOUDS BELOW 12,000 FEET WITH NO SIGNIFICANT WEATHER AND/OR OBSTRUCTIONS TO VISIBILITY. NYZ071-072-176-178-NJZ106-104-301500- NEW YORK CITY METRO AREA CITY SKY/WX TMP DP RH WIND PRES REMARKS CENTRAL PARK CLOUDY 80 72 76 MISG 29.92F LAGUARDIA APRT CLOUDY 81 72 74 SW8 29.89F KENNEDY INTL LGT RAIN 77 73 88 W7 29.91F NEWARK/LIBERTY CLOUDY 81 74 79 S9 29.89F BRNX BOT. GARD N/A 81 72 74 SW5 29.91R TETERBORO LGT RAIN 81 72 74 S10 29.88F $$ NYZ177-179-078>081-301500- LONG ISLAND NEW YORK CITY SKY/WX TMP DP RH WIND PRES REMARKS FARMINGDALE RAIN 78 74 87 SW12 29.92S FOG ISLIP CLOUDY 81 73 76 SW15 29.90S SHIRLEY PTSUNNY 80 73 79 SW14 29.92S WESTHAMPTON CLOUDY 81 75 82 SW14G23 29.93F MONTAUK POINT N/A 81 74 79 SW9G17 29.92F $$ NYZ052-065-067-301500- HUDSON VALLEY CITY SKY/WX TMP DP RH WIND PRES REMARKS WHITE PLAINS PTSUNNY 79 73 82 S5 29.90F NEWBURGH CLOUDY 81 75 83 SW12 29.89F MONTGOMERY CLOUDY 81 74 79 SW14 29.87F POUGHKEEPSIE CLOUDY 82 72 71 S5 29.86F ALBANY PTSUNNY 80 70 71 S13 29.83F $$ NJZ001-105-106-008-010-013-015-019>022-104-301500- NEW JERSEY CITY SKY/WX TMP DP RH WIND PRES REMARKS NEWARK/LIBERTY CLOUDY 81 74 79 S9 29.89F TETERBORO LGT RAIN 81 72 74 S10 29.88F CALDWELL CLOUDY 80 72 76 S6 29.89F MORRISTOWN CLOUDY 82 75 78 SW8 29.90F SOMERVILLE CLOUDY 81 74 79 VRB6 29.87F SUSSEX CLOUDY 79 73 82 VRB5 29.88F ANDOVER N/A 78 73 84 SW7 29.90F TRENTON LGT RAIN 83 75 77 S9 29.89F HX 90 MILLVILLE MOSUNNY 81 74 79 VRB6 29.93F ATLANTIC CITY PTSUNNY 83 73 72 S9 29.94F WRIGHTSTOWN PTSUNNY 84 75 75 SW13G20 29.88F HX 92 TOMS RIVER N/A 82 73 74 SW14 29.92F BELMAR PTSUNNY 82 72 69 SW9 29.91F $$ PAZ047>061-062-071-301500- EASTERN PENNSYLVANIA CITY SKY/WX TMP DP RH WIND PRES REMARKS PHILADELPHIA PTSUNNY 85 73 67 S14 29.90F HX 91 ALLENTOWN CLOUDY 81 74 79 SW8 29.89F SCRANTON CLOUDY 80 72 76 SW8 29.89F $$ CTZ002-004>006-009-010-012-RIZ004-006-007-MAZ004-011-015-301500- SOUTHERN NEW ENGLAND IN CT CITY SKY/WX TMP DP RH WIND PRES REMARKS BRADLEY INTL PTSUNNY 82 72 71 SW12 29.86F HARTFORD CLOUDY 81 73 76 S9 29.87F DANBURY CLOUDY 81 71 71 SW13 29.90F WTRBRY/OXFORD CLOUDY 79 70 73 SW7 29.92F HAZE BRIDGEPORT MOSUNNY 81 72 74 S12 29.89F MERIDEN CLOUDY 82 73 74 S7 29.88F NEW HAVEN PTSUNNY 80 73 79 S8 29.90F CHESTER CLOUDY 79 73 83 SW9 29.92F GROTON MOSUNNY 79 73 82 SW8 29.90F WILLIMANTIC CLOUDY 81 72 74 W8 29.89F IN RI CITY SKY/WX TMP DP RH WIND PRES REMARKS PROVIDENCE PTSUNNY 84 74 71 SW8 29.89F HX 91 BLOCK ISLAND N/A 79 73 83 SW17G23 29.93F WESTERLY SUNNY 81 73 76 SW8 29.91F IN MA CITY SKY/WX TMP DP RH WIND PRES REMARKS BOSTON PTSUNNY 87 70 56 SW14 29.85F HX 92 WORCESTER MOSUNNY 80 70 71 SW10 29.91F WESTFIELD PTSUNNY 82 72 71 S9 29.86F PROVINCETOWN SUNNY 79 68 69 S12G20 29.89S NANTUCKET MOSUNNY 78 72 81 SW15 29.93S $$ ANZ330-335-338-340-345-350-353-355-301500- COASTAL MARINE OBSERVATIONS STATION/POSITION TIME SKY/WX TEMP WIND PRES VSBY WAVE AIR SEA DIR/SP/G HT/PER (UTC) (F) (DEG/KT/KT) (MB) (MI) (FT/S) NY HARB ENTRANCE 1350 77 76 200/ 16/ 17 1012.2 3/10 4S FIRE IS NOT AVBL 20S FIRE ISLAND 1350 76 74 210/ 14/ 14 1012.9 4/ 5 GREAT SOUTH BAY 1300 77 81 230/ 12/ 14 N/A 23SW MTP 1350 76 74 220/ 14/ 16 1012.9 4/ 9 HUDSON CANYON NOT AVBL KINGS POINT 1306 78 70 230/ 9/ 13 1012.0 EXECUTION ROCKS 1300 77 210/ 4/ 6 N/A CENTRAL LI SOUND NOT AVBL EASTERN LI SOUND 1300 75 70 220/ 8/ 10 N/A ROBBINS REEF 1306 77 240/ 7/ 10 1011.7 $$ >>>>>>>>>>>>>>>>>>>>>>>>>>>> KEY <<<<<<<<<<<<<<<<<<<<<<<<<<< > < > SKY/WX - SKY CONDITION/PRESENT WEATHER < > TMP - TEMPERATURE IN FAHRENHEIT < > DP - DEWPOINT IN FAHRENHEIT < > RH - RELATIVE HUMIDITY IN PERCENT < > WIND - DIRECTION AND SPEED IN MPH < > PRES - MEAN SEA LEVEL PRESSURE IN INCHES OF HG < > WCI - WIND CHILL INDEX < > VSB - VISIBILITY IN MILES < > HX - HEAT INDEX < > TC - TEMPERATURE IN CELSIUS < > VRB - VARIABLE WIND DIRECTION < > < >>>>>>>>>>>>>>>>>>>>>>>>>>>> KEY <<<<<<<<<<<<<<<<<<<<<<<<<<<

USA.gov is the U.S. government's official web portal to all federal, state and local government web resources and services.